Regional Weather Roundup
Issued by NWS

Home | Current Version | Previous Version | Text Only | Print | Product List | Glossary On
Versions: 1 2 3 4 5 6 7 8 9 10 11 12 13 14 15 16 17 18 19 20 21 22 23 24 25 26 27 28 29 30 31 32 33 34 35 36 37 38 39 40 41 42 43 44 45 46 47 48 49 50
000
ASUS45 KREV 060710
RWRNV
NEVADA REGIONAL WEATHER ROUNDUP
NATIONAL WEATHER SERVICE RENO NV
1100 PM PST THU MAR 05 2015

NOTE: "FAIR" INDICATES FEW OR NO CLOUDS BELOW 12,000 FEET WITH NO
SIGNIFICANT WEATHER AND/OR OBSTRUCTIONS TO VISIBILITY.

NVZ001-003-004-060800-
WESTERN NEVADA

CITY           SKY/WX    TMP DP  RH WIND       PRES   REMARKS
RENO           CLEAR     41  22  46 W3        30.40F
CARSON CITY    FAIR      34  21  60 CALM      30.42S
MINDEN         FAIR      27  16  63 CALM      30.43
PYRAMID LAKE     N/A     43 N/A N/A NW5         N/A
FALLON         PTCLDY    32  17  54 S5        30.39S
LOVELOCK       PTCLDY    27  13  55 CALM      30.39S
HAWTHORNE      CLEAR     37  19  48 CALM      30.40S
$$

NVZ002-CAZ072-073-060800-
NORTHERN AND CENTRAL SIERRA

CITY           SKY/WX    TMP DP  RH WIND       PRES   REMARKS
S. LAKE TAHOE  CLEAR     30  21  69 SW3       30.42S
TRUCKEE        CLEAR     23  21  93 CALM      30.43F
SQUAW VLY 8000   N/A     32  16  51 CALM        N/A
BLUE CANYON    CLEAR     48  15  26 NE3       30.38S
MAMMOTH LAKES  FAIR      27   7  43 CALM      30.45S
BRIDGEPORT     FAIR      24  12  60 CALM      30.43S
$$

NVZ030-031-036-060800-
NORTHERN NEVADA

CITY           SKY/WX    TMP DP  RH WIND       PRES   REMARKS
ELKO           CLEAR     27  15  61 E5        30.41R
WINNEMUCCA     PTCLDY    25  14  63 S5        30.40S
WENDOVER       PTCLDY    34  19  55 NE8       30.40F
$$

NVZ035-037-060800-
CENTRAL NEVADA

CITY           SKY/WX    TMP DP  RH WIND       PRES   REMARKS
ELY            CLEAR     25  20  81 S13       30.42S
EUREKA           N/A     28  21  75 S6        30.41S
$$

NVZ013-014-060800-
SOUTH CENTRAL NEVADA

CITY           SKY/WX    TMP DP  RH WIND       PRES   REMARKS
TONOPAH        CLEAR     34  17  50 N9        30.40S
$$

NVZ017-020-022-060800-
SOUTHERN NEVADA

CITY           SKY/WX    TMP DP  RH WIND       PRES   REMARKS
LAS VEGAS      CLEAR     51  31  46 S9        30.28F
N. LAS VEGAS   CLEAR     50  30  46 NW5       30.32S
NELLIS AFB     CLEAR     48  31  52 NE5       30.32S
HENDERSON      CLEAR     45  30  55 S5        30.34S
MERCURY        CLEAR     46  25  43 CALM      30.33S
$$


USA.gov is the U.S. government's official web portal to all federal, state and local government web resources and services.